Location: *
(47.8162°S, 171.3172°W)
Time: 02:15:27
(UTC+00:00)

Daily predictions for brighter satellites

Satellite Brightness Start Highest point End
(mag) Time Altitude Azimuth Time Altitude Azimuth Time Altitude Azimuth
USA 215 3.5 04:10:39 10° E 04:17:04 55° SSE 04:23:29 10° SW
CZ-2C R/B 4.4 04:15:22 10° S 04:19:15 26° WSW 04:23:12 10° WNW
Cosmos 1633 4.5 04:16:35 10° NW 04:19:42 29° WSW 04:22:51 10° SSW
Lacrosse 5 2.9 04:18:09 10° SW 04:22:41 30° S 04:27:13 10° ESE
CZ-4B R/B 3.5 04:19:20 10° SSE 04:24:16 82° WSW 04:29:04 10° NNW
ERBS 3.4 04:25:38 10° SW 04:28:19 24° SSE 04:30:59 10° ESE
Cosmos 2360 4.2 04:23:35 10° SSW 04:29:24 82° ESE 04:35:07 10° NNE
Cosmos 1340 Rocket 2.9 04:29:05 10° N 04:33:04 59° E 04:37:09 10° SSE
BREEZE M DEB (TANK) 3.7 04:37:13 10° N 04:38:39 16° NE 04:40:11 10° E
Meteor 1-31 Rocket 3.2 04:35:04 10° SSE 04:38:56 44° E 04:42:44 10° N
Cosmos 2151 3.5 04:36:54 10° NNE 04:40:57 39° E 04:45:02 10° SSE
Cosmos 1607 4.1 04:36:59 10° NW 04:43:17 79° SW 04:49:44 10° SE
USA 308 2.8 04:40:58 10° WSW 04:45:15 83° SSE 04:49:29 10° ENE
SL-16 R/B 3.3 04:42:29 10° S 04:47:03 24° SE 04:51:25 11° E
CZ-2C R/B 4.4 04:43:38 10° S 04:47:27 38° WSW 04:51:12 10° NW
Cosmos 1302 Rocket 4.1 04:45:35 10° NNW 04:50:50 82° WSW 04:56:12 10° SSE
COSMOS 2406 3.2 04:47:38 10° NNW 04:53:16 67° ENE 04:58:58 10° SSE
COSMO-SKYMED 1 3.2 04:49:18 10° N 04:53:38 61° W 04:58:03 10° SSW
Landsat 5 3.9 04:51:37 10° NE 04:55:51 45° ESE 05:00:00 10° S
Cosmos 2173 Rocket 4.0 04:52:43 10° S 04:59:11 80° E 05:05:28 10° NNE
Cosmos 1782 2.7 04:56:18 10° S 05:00:19 68° E 05:04:17 10° NNE
Cosmos 1833 Rocket 3.0 04:55:27 10° NW 05:01:08 71° WSW 05:06:51 10° SSE
Cosmos 2016 Rocket 4.1 04:55:43 10° S 05:01:54 57° ESE 05:08:06 10° NNE
Cosmos 1354 Rocket 4.4 04:58:34 10° SSW 05:03:36 42° ESE 05:08:35 10° NE
SeaSat 1 3.9 05:00:55 10° SSE 05:05:22 33° SW 05:09:47 10° WNW
USA 305 3.2 05:02:19 10° WSW 05:06:31 65° NW 05:10:41 10° NE
Cosmos 1992 Rocket 4.0 05:01:55 10° N 05:07:07 65° ENE 05:12:21 10° SSE
Cosmos 1486 Rocket 4.0 05:01:46 10° SSW 05:07:12 83° ESE 05:12:35 10° NNE
Cosmos 2233 Rocket 4.4 05:02:06 10° S 05:08:00 39° ESE 05:13:52 10° NE
Cosmos 2360 Rocket 3.6 05:04:33 10° S 05:08:26 18° SE 05:09:28 18° SE
Cosmos 1933 3.6 05:04:52 10° SSW 05:08:59 75° W 05:13:02 10° N
SMAP 3.8 05:06:12 13° SE 05:09:46 31° E 05:13:57 10° NNE
Cosmos 2278 3.7 05:04:16 10° SSW 05:09:56 59° ESE 05:15:32 10° NE
Cosmos 1727 Rocket 4.5 05:03:57 10° NNW 05:10:09 65° WSW 05:16:25 10° S
Cosmos 1939 Rocket 2.8 05:06:20 10° SSE 05:10:14 58° E 05:14:05 10° N
Lacrosse 5 rocket 2.5 05:07:46 10° SW 05:11:14 25° SSE 05:12:32 21° SE
DMSP B5D1-3 4.5 05:09:25 10° NNE 05:14:36 80° ESE 05:19:53 10° SSW
Cosmos 1864 Rocket 4.4 05:09:35 10° S 05:15:47 67° ESE 05:21:56 10° NNE
Cosmos 1151 Rocket 3.6 05:12:47 10° S 05:16:54 35° ESE 05:20:56 10° NE
Meteor PRIRODA 4.1 05:16:58 23° SE 05:18:49 41° E 05:22:22 10° N
Cosmos 1076 Rocket 4.0 05:15:04 10° NNW 05:19:25 63° WSW 05:23:49 10° S
Cosmos 1802 Rocket 4.1 05:14:56 10° S 05:21:28 89° E 05:27:57 10° N
BREEZE-M DEB (TANK) 4.3 05:14:05 10° WSW 05:21:45 37° NW 05:24:54 10° NNE
SL-08 R/B 4.4 05:15:28 10° S 05:21:45 67° E 05:27:52 10° NNE
Cosmos 1459 Rocket 4.2 05:16:23 10° SSW 05:22:35 74° W 05:28:50 10° N
Meteor 2-3 Rocket 4.0 05:18:17 10° NNW 05:23:54 71° WSW 05:29:40 10° S
USA 281 3.7 05:21:17 17° SE 05:25:59 39° ENE 05:32:06 10° N
Orbus 7S? 3.3 05:24:20 10° SW 05:28:13 40° SSE 05:28:30 39° SE
ATLAS 2AS CENTAUR R/B 4.4 05:21:49 10° SW 05:28:15 38° WNW 05:35:00 10° N
CZ-2D R/B 3.7 05:30:12 37° E 05:30:35 38° E 05:34:12 10° NNE
ARGOS 3.9 05:30:55 28° E 05:31:39 29° E 05:36:20 10° NNE
Cosmos 1812 3.0 05:28:25 10° SSW 05:32:19 71° W 05:36:09 10° N
CZ-4B R/B 2.8 05:34:48 39° SE 05:35:51 53° E 05:39:40 10° N
CZ-2C R/B 4.4 05:31:51 10° S 05:36:14 35° WSW 05:40:42 10° NW
Cosmos 1503 Rocket 3.9 05:31:51 10° SSW 05:37:08 89° ESE 05:42:20 10° NNE
SJ 16-02 1.4 05:32:53 10° SSW 05:37:16 51° ESE 05:39:38 25° NE
Cosmos 1980 Rocket 2.9 05:35:12 10° SW 05:40:43 55° WNW 05:46:11 10° N
Meteor 2-6 Rocket 4.1 05:35:16 10° S 05:40:58 77° ESE 05:46:27 10° NNE
CZ-4C R/B 2.7 05:41:29 10° NNE 05:44:44 84° E 05:48:09 10° SSW
USA 306 4.4 05:44:36 10° WSW 05:48:28 35° NW 05:52:10 11° NNE
H-2A R/B 3.9 05:52:26 19° SSE 05:52:26 19° SSE 05:53:56 10° S
Cosmos 2322 Rocket 2.5 05:45:01 10° SSW 05:50:30 43° SE 05:51:24 40° ESE
RESURS DK-1 3.8 05:47:40 10° SW 05:51:37 40° WNW 05:55:31 10° N
USA 307 4.3 05:49:52 10° WSW 05:53:46 36° NW 05:56:49 15° NNE
Cosmos 1900 4.2 05:48:55 10° SSW 05:53:47 64° SE 05:54:56 48° ENE
Cosmos 2082 Rocket 2.6 05:49:52 10° NW 05:55:28 63° WSW 05:59:35 19° SSE
H-2A R/B 1.8 05:55:24 18° SSE 05:59:11 85° ENE 06:04:09 10° NNW
USA 215 3.5 05:53:47 12° NE 05:59:58 70° NW 06:06:36 10° WSW
Cosmos 2333 Rocket 3.6 05:56:42 10° S 05:59:59 23° SSE 05:59:59 23° SSE
Cosmos 2123 Rocket 4.4 05:57:04 10° NNW 06:03:23 64° WSW 06:09:46 10° S
ERBS 3.2 06:00:46 10° WSW 06:03:05 43° WSW 06:03:05 43° WSW
Cosmos 1862 3.7 06:01:31 10° NNW 06:05:29 64° WSW 06:07:13 32° S
Cosmos 1766 Rocket 3.7 06:01:09 10° N 06:04:50 58° NE 06:04:50 58° NE
IRIDIUM 104 4.2 06:00:46 10° N 06:05:59 67° E 06:09:31 21° SSE
Lacrosse 5 2.0 06:01:27 10° SW 06:06:31 56° SSE 06:06:47 55° SE
Okean 3 Rocket 4.3 06:02:21 10° N 06:05:27 40° NNE 06:05:27 40° NNE
CZ-2C R/B 3.7 06:07:10 10° NNW 06:08:24 11° N 06:08:37 11° N
ADEOS 4.1 06:04:06 10° S 06:09:19 58° WSW 06:14:28 10° NNW
CORIOLIS 4.1 06:05:10 18° SSE 06:09:26 88° ENE 06:14:56 10° NNW
Cosmos 2219 Rocket 3.9 06:06:24 10° S 06:08:49 19° SSE 06:08:49 19° SSE
IRIDIUM 114 4.2 06:09:51 10° N 06:15:07 80° E 06:18:42 21° S
Cosmos 2084 3.6 06:11:28 10° NW 06:16:19 84° SW 06:16:40 76° SSE
Radarsat Rocket 4.5 06:11:40 14° SSE 06:18:09 68° ENE 06:26:18 10° N
IRIDIUM 103 4.3 06:19:00 10° N 06:24:16 86° W 06:27:48 22° S
Cosmos 1867 4.0 06:19:33 10° SSW 06:23:54 47° S 06:23:54 47° S
NOAA 6 4.2 06:29:17 39° S 06:31:13 70° WSW 06:36:20 10° NNW
SL-16 R/B 2.2 06:26:03 10° SSW 06:31:48 78° WNW 06:33:22 49° N
Cosmos 2237 4.2 06:32:37 10° SSW 06:37:59 77° S 06:37:59 77° S
Lacrosse 5 rocket 3.6 06:46:52 10° SW 06:48:05 19° SW 06:48:05 19° SW
Cosmos 2360 Rocket 3.1 06:47:42 10° SSW 06:51:15 39° SSW 06:51:15 39° SSW
Meteor 1-27 Rocket 4.4 06:59:05 10° SSW 07:04:31 52° W 07:04:58 51° WNW
USA 281 3.9 07:08:10 35° S 07:10:36 51° SW 07:16:57 10° NW
ARGOS 4.1 07:12:25 45° WSW 07:12:25 45° WSW 07:17:13 10° NW
SJ 16-02 3.9 07:12:20 10° SW 07:15:25 19° W 07:16:45 16° WNW
Cosmos 2322 Rocket 3.7 07:29:16 10° SW 07:33:16 33° W 07:33:16 33° W
Cosmos 2333 Rocket 4.4 07:40:32 10° SSW 07:42:01 19° SSW 07:42:01 19° SSW
Lacrosse 5 4.4 07:44:38 10° WSW 07:45:59 18° WSW 07:45:59 18° WSW
